Orbital Elements at Epoch 2459200.5 (2020-Dec-17.0) TDB
Reference: JPL 37 (heliocentric ecliptic J2000)
Element | Value | Uncertainty (1-sigma) | Units |
e | .1640258265120428 | 2.8481e-08 | |
a | 2.618705439447872 | 8.8312e-09 | au |
q | 2.189170115350853 | 7.5866e-08 | au |
i | 12.39241851554899 | 8.8301e-07 | deg |
node | 237.2229201241184 | 3.531e-06 | deg |
peri | 164.2996973833076 | 7.0051e-06 | deg |
M | 349.107774463441 | 5.4783e-06 | deg |
tp | 2459247.331980786445 (2021-Feb-01.83198079) | 2.3562e-05 | TDB |
period | 1547.848327830936 4.24 | 7.8298e-06 2.144e-08 | d yr |
n | .2325809276833235 | 1.1765e-09 | deg/d |
Q | 3.048240763544892 | 1.028e-08 | au |
|
| | Orbit Determination Parameters
Additional Information
|